Location: ?????????
(53.2086°N, 54.0693°E)
Time: 11:33:31
(UTC+00:00)

Cosmos 2333 Rocket - Pass Details

Date: 08 December 2019
Orbit: 837 x 864 km, 70.8° (Epoch: 19 January)

Event Time Altitude Azimuth Distance (km) Brightness Sun altitude
Rises 16:17:08 0° 268° (W) 3,435 6.3 -36.1°
Reaches altitude 10° 16:20:14 10° 285° (WNW) 2,505 5.4 -36.5°
Maximum altitude 16:24:29 21° 332° (NNW) 1,868 4.3 -37.2°
Enters shadow 16:24:41 21° 335° (NNW) 1,869 4.2 -37.2°
